(431551) = 2007 TR444 = 2012 TJ252

Discovered at Kitt Peak on 2007-10-09 by Spacewatch.

Orbit

Orbit type: Main Belt

Note: WebGL enabled browser required.

epoch2023-09-13.0
epoch JD2460200.5
perihelion date2022-02-06.52313
perihelion JD2459617.02313
argument of perihelion (°)63.10601
ascending node (°)246.92887
inclination (°)9.42147
eccentricity0.0736892
perihelion distance (AU)2.7666671
Tisserand w.r.t. Jupiter3.2
ΔV w.r.t. Earth (km/sec)10.8
semimajor axis (AU)2.9867588
mean anomaly (°)111.41079
mean daily motion (°/day)0.19094290
aphelion distance (AU)3.207
period (years)5.16
P-vector [x]0.63218574
P-vector [y]-0.75621960
P-vector [z]-0.16873975
Q-vector [x]0.76003939
Q-vector [y]0.56291363
Q-vector [z]0.32475894
absolute magnitude15.99
phase slope0.15
uncertainty0
referenceMPEC 2024-A26
observations used191
oppositions10
arc length (days)5929
first opposition used2007
last opposition used2024
residual rms (arc-secs)0.60
perturbers coarse indicatorM-v
perturbers precise indicator003Ek
first observation date used2007-10-09.0
last observation date used2024-01-02.0
computer nameMPCLINUX
Minimum Orbit Intersection Distances (in AU)
for orbit epoch: 2460200.5, reference: E2023-Y46
Mercury2.3388
Venus2.05562
Earth1.76697
Mars1.35977
Jupiter1.96687
Saturn5.9013
Uranus15.334
Neptune26.848

Observations

197 total observations over interval: 2007 10 09.37994 – 2024 01 02.322016
These data are available for download (format description).

Date (UT) J2000 RA J2000 Dec Magn Location Ref
2007 10 09.37994 03 07 03.40 +23 59 04.0 20.8 V 691 – Steward Observatory, Kitt Peak-Spacewatch MPS 326404
2007 10 09.39763 03 07 02.82 +23 59 00.7 20.8 V 691 – Steward Observatory, Kitt Peak-Spacewatch MPS 326404
2007 10 09.41532 03 07 02.24 +23 58 57.7 20.6 V 691 – Steward Observatory, Kitt Peak-Spacewatch MPS 326404
2007 10 16.35272 03 02 57.98 +23 34 21.6 20.4 V G96 – Mt. Lemmon Survey MPS 326404
2007 10 16.35328 03 02 57.94 +23 34 21.2 20.2 V G96 – Mt. Lemmon Survey MPS 326404
2007 10 16.36293 03 02 57.55 +23 34 18.9 20.3 V G96 – Mt. Lemmon Survey MPS 326404
2007 10 16.36346 03 02 57.51 +23 34 18.8 20.3 V G96 – Mt. Lemmon Survey MPS 326404
2007 10 16.37317 03 02 57.12 +23 34 16.3 19.9 V G96 – Mt. Lemmon Survey MPS 326404
2007 10 16.37372 03 02 57.08 +23 34 16.6 20.1 V G96 – Mt. Lemmon Survey MPS 326404
2007 10 16.38347 03 02 56.72 +23 34 14.4 19.8 V G96 – Mt. Lemmon Survey MPS 326404
2007 10 16.38404 03 02 56.68 +23 34 14.0 19.7 V G96 – Mt. Lemmon Survey MPS 326404
2007 10 21.37209 02 59 29.59 +23 12 29.7   691 – Steward Observatory, Kitt Peak-Spacewatch MPS 326404
2007 10 21.38972 02 59 28.76 +23 12 24.4   691 – Steward Observatory, Kitt Peak-Spacewatch MPS 326404
2007 10 21.40736 02 59 28.10 +23 12 16.8   691 – Steward Observatory, Kitt Peak-Spacewatch MPS 326404
2007 11 02.18386 02 50 10.90 +22 09 08.4 20.1 V 691 – Steward Observatory, Kitt Peak-Spacewatch MPS 326404
2007 11 02.20151 02 50 10.01 +22 09 02.3 20.0 V 691 – Steward Observatory, Kitt Peak-Spacewatch MPS 326404
2007 11 02.21917 02 50 09.10 +22 08 56.0 19.8 V 691 – Steward Observatory, Kitt Peak-Spacewatch MPS 326404
2007 11 07.27344 02 45 56.44 +21 37 46.1 19.9   704 – Lincoln Laboratory ETS, New Mexico MPS 326404
2007 11 07.28654 02 45 55.81 +21 37 41.2 19.8   704 – Lincoln Laboratory ETS, New Mexico MPS 326404
2007 11 07.29890 02 45 55.10 +21 37 35.9 20.1   704 – Lincoln Laboratory ETS, New Mexico MPS 326404
2007 11 07.31119 02 45 54.45 +21 37 29.6 20.7   704 – Lincoln Laboratory ETS, New Mexico MPS 326404
2012 10 11.356750 01 54 19.352 +21 08 57.85 20.0 w F51 – Pan-STARRS 1, Haleakala MPS 435728
2012 10 11.371728 01 54 18.650 +21 08 52.97 20.0 w F51 – Pan-STARRS 1, Haleakala MPS 435728
2012 10 11.386711 01 54 17.949 +21 08 48.18 20.2 w F51 – Pan-STARRS 1, Haleakala MPS 435728
2012 10 11.401795 01 54 17.243 +21 08 43.36 20.2 w F51 – Pan-STARRS 1, Haleakala MPS 435728
2012 10 17.34818 01 49 40.83 +20 33 51.1 19.8 V G96 – Mt. Lemmon Survey MPS 435728
2012 10 17.35560 01 49 40.44 +20 33 48.2 20.2 V G96 – Mt. Lemmon Survey MPS 435728
2012 10 17.36310 01 49 40.11 +20 33 45.6 20.3 V G96 – Mt. Lemmon Survey MPS 435728
2012 10 17.37053 01 49 39.72 +20 33 42.4 20.1 V G96 – Mt. Lemmon Survey MPS 435728
2012 11 07.272758 01 33 58.076 +18 06 58.08 20.2 w F51 – Pan-STARRS 1, Haleakala MPS 439533
2012 11 07.286789 01 33 57.508 +18 06 52.00 20.1 w F51 – Pan-STARRS 1, Haleakala MPS 439533
2012 11 07.300862 01 33 56.930 +18 06 45.87 20.4 w F51 – Pan-STARRS 1, Haleakala MPS 439533
2012 11 07.314968 01 33 56.350 +18 06 39.83 20.3 w F51 – Pan-STARRS 1, Haleakala MPS 439533
2012 11 07.33677 01 33 55.22 +18 06 29.1 19.3 V 703 – Catalina Sky Survey MPS 439533
2012 11 07.34403 01 33 54.97 +18 06 25.4 19.9 V 703 – Catalina Sky Survey MPS 439533
2012 11 07.35133 01 33 54.68 +18 06 23.3 20.2 V 703 – Catalina Sky Survey MPS 439533
2012 11 07.35861 01 33 54.43 +18 06 19.5 20.3 V 703 – Catalina Sky Survey MPS 439533
2014 01 25.28749 07 08 07.516 +12 55 39.51 21.1 g F51 – Pan-STARRS 1, Haleakala MPS 498470
2014 01 25.29930 07 08 06.956 +12 55 40.04 21.0 g F51 – Pan-STARRS 1, Haleakala MPS 498470
2015 01 22.60586 12 24 12.792 -14 14 29.76 21.5 w F51 – Pan-STARRS 1, Haleakala MPS 567527
2015 01 22.61712 12 24 12.912 -14 14 32.62 21.5 w F51 – Pan-STARRS 1, Haleakala MPS 567527
2015 01 22.62843 12 24 13.006 -14 14 35.29 21.5 w F51 – Pan-STARRS 1, Haleakala MPS 567527
2015 01 22.63970 12 24 13.108 -14 14 38.02 21.4 w F51 – Pan-STARRS 1, Haleakala MPS 567527
2015 02 25.52074 12 18 09.252 -15 04 51.24 20.9 w F51 – Pan-STARRS 1, Haleakala MPS 583303
2015 02 25.53168 12 18 08.889 -15 04 50.33 20.9 w F51 – Pan-STARRS 1, Haleakala MPS 583303
2015 02 25.54266 12 18 08.536 -15 04 49.09 20.9 w F51 – Pan-STARRS 1, Haleakala MPS 583303
2015 02 25.55367 12 18 08.170 -15 04 48.16 20.9 w F51 – Pan-STARRS 1, Haleakala MPS 583303
2015 02 27.49403 12 17 06.051 -15 01 38.95 20.3 i F51 – Pan-STARRS 1, Haleakala MPS 583303
2015 02 27.50589 12 17 05.632 -15 01 37.77 20.4 i F51 – Pan-STARRS 1, Haleakala MPS 583303
2015 02 27.51776 12 17 05.229 -15 01 36.32 20.4 i F51 – Pan-STARRS 1, Haleakala MPS 583303
2015 02 27.52963 12 17 04.831 -15 01 35.12 20.4 i F51 – Pan-STARRS 1, Haleakala MPS 583303
2015 03 20.47594 12 02 51.907 -13 44 50.65 20.2 w F51 – Pan-STARRS 1, Haleakala MPS 592380
2015 03 20.48651 12 02 51.402 -13 44 47.33 20.3 w F51 – Pan-STARRS 1, Haleakala MPS 592380
2015 03 20.49708 12 02 50.911 -13 44 43.77 20.5 w F51 – Pan-STARRS 1, Haleakala MPS 592380
2015 03 21.42842 12 02 08.682 -13 39 41.80 20.4 w F51 – Pan-STARRS 1, Haleakala MPS 592380
2015 03 21.43897 12 02 08.179 -13 39 38.31 20.5 w F51 – Pan-STARRS 1, Haleakala MPS 592380
2015 03 21.44952 12 02 07.689 -13 39 34.86 20.3 w F51 – Pan-STARRS 1, Haleakala MPS 592380
2015 03 21.46005 12 02 07.188 -13 39 31.41 20.3 w F51 – Pan-STARRS 1, Haleakala MPS 592380
2015 04 18.31461 11 43 23.643 -10 38 17.01 20.6 w F51 – Pan-STARRS 1, Haleakala MPS 603173
2015 04 18.32523 11 43 23.311 -10 38 12.76 20.5 w F51 – Pan-STARRS 1, Haleakala MPS 603173
2015 04 18.33586 11 43 22.979 -10 38 08.40 20.6 w F51 – Pan-STARRS 1, Haleakala MPS 603173
2017 09 21.53427 00 53 56.572 +18 18 23.23 20.3 w F51 – Pan-STARRS 1, Haleakala MPS 818923
2017 09 21.54708 00 53 56.026 +18 18 19.79 20.1 w F51 – Pan-STARRS 1, Haleakala MPS 818923
2017 09 21.55994 00 53 55.471 +18 18 16.43 20.1 w F51 – Pan-STARRS 1, Haleakala MPS 818923
2017 09 24.33922 00 51 58.75 +18 05 24.7 20.1 V 703 – Catalina Sky Survey MPS 823215
2017 09 24.34506 00 51 58.49 +18 05 22.1 19.8 V 703 – Catalina Sky Survey MPS 823215
2017 09 24.35094 00 51 58.32 +18 05 21.4 19.8 V 703 – Catalina Sky Survey MPS 823215
2017 09 24.35675 00 51 58.13 +18 05 19.8 20.1 V 703 – Catalina Sky Survey MPS 823215
2017 09 28.63110 00 48 50.78 +17 42 57.2 20.2 R D29 – Purple Mountain Observatory, XuYi Station MPS 823215
2017 09 28.64877 00 48 49.94 +17 42 51.6 20.0 R D29 – Purple Mountain Observatory, XuYi Station MPS 823215
2017 09 28.66645 00 48 49.11 +17 42 45.6 20.1 R D29 – Purple Mountain Observatory, XuYi Station MPS 823215
2017 09 30.33983 00 47 34.158 +17 33 12.30 19.8 i F51 – Pan-STARRS 1, Haleakala MPS 823215
2017 09 30.35080 00 47 33.648 +17 33 08.52 19.9 i F51 – Pan-STARRS 1, Haleakala MPS 823215
2017 09 30.36181 00 47 33.130 +17 33 04.70 19.8 i F51 – Pan-STARRS 1, Haleakala MPS 823215
2017 09 30.37289 00 47 32.611 +17 33 00.78 19.7 i F51 – Pan-STARRS 1, Haleakala MPS 823215
2017 10 14.39620 00 37 02.45 +15 58 58.6 20.1 G G96 – Mt. Lemmon Survey MPS 828068
2017 10 14.40091 00 37 02.25 +15 58 56.5 20.1 G G96 – Mt. Lemmon Survey MPS 828068
2017 10 14.42538 00 37 01.18 +15 58 45.4 19.4 G G96 – Mt. Lemmon Survey MPS 828068
2017 10 14.43008 00 37 00.96 +15 58 43.4 19.9 G G96 – Mt. Lemmon Survey MPS 828068
2017 10 19.43823 00 33 33.420 +15 21 19.59 19.9 w F51 – Pan-STARRS 1, Haleakala MPS 828068
2017 10 19.44961 00 33 32.925 +15 21 14.56 20.0 w F51 – Pan-STARRS 1, Haleakala MPS 828068
2017 10 19.46104 00 33 32.459 +15 21 09.41 20.2 w F51 – Pan-STARRS 1, Haleakala MPS 828068
2017 10 22.21858 00 31 46.19 +15 00 14.4 20.3 G G96 – Mt. Lemmon Survey MPS 831571
2017 10 22.22653 00 31 45.89 +15 00 11.1 20.4 G G96 – Mt. Lemmon Survey MPS 831571
2017 10 22.23437 00 31 45.58 +15 00 07.5 19.9 G G96 – Mt. Lemmon Survey MPS 831571
2017 10 22.23960 00 31 45.39 +15 00 05.0 20.1 G G96 – Mt. Lemmon Survey MPS 831571
2017 10 24.23923 00 30 32.45 +14 44 55.9 20.5 G 703 – Catalina Sky Survey MPS 831571
2017 10 24.25581 00 30 31.77 +14 44 47.7 20.0 G 703 – Catalina Sky Survey MPS 831571
2017 10 27.20950 00 28 51.14 +14 22 34.6 18.9 G 703 – Catalina Sky Survey MPS 831571
2017 10 27.21494 00 28 51.05 +14 22 32.1 19.4 G 703 – Catalina Sky Survey MPS 831571
2017 10 27.22036 00 28 50.85 +14 22 27.3 20.0 G 703 – Catalina Sky Survey MPS 831571
2017 10 27.22577 00 28 50.74 +14 22 24.1 20.7 G 703 – Catalina Sky Survey MPS 831571
2017 11 16.15321 00 22 05.56 +12 08 20.8 20.4 G G96 – Mt. Lemmon Survey MPS 838988
